Simultaneous Nadir Overpasses (SNOs) Predictions

Prediction of SNOs between GOES-17 and METOP-A Satellite Orbit:

Table of predicted SNOs for the next 14.0 days since TLE Epoch: 6/5/2020
Index Date Time (GOES-17) GOES-17 Lat,Lon METOP-A Lat,Lon Distance(km) Time Diff (sec)
1 06/06/2020 05:36:25 -0.02,-137.17 0.79,-133.58 409.32 80
2 06/07/2020 17:52:37 0.02,-137.17 0.25,-138.17 114.00 80
3 06/08/2020 17:34:37 0.02,-137.16 -0.87,-133.19 452.36 80
4 06/10/2020 05:53:36 -0.01,-137.13 -0.19,-137.81 78.16 80
5 06/11/2020 05:30:17 -0.01,-137.12 0.93,-132.84 488.11 80
6 06/12/2020 17:49:08 0.01,-137.12 0.11,-137.43 35.77 80
7 06/15/2020 05:47:29 -0.01,-137.07 0.01,-137.08 2.64 80
8 06/17/2020 17:48:21 0.00,-137.04 -0.10,-136.69 40.43 80
9 06/19/2020 06:07:20 0.00,-137.00 -0.95,-141.31 491.65 80




NCC Satellite Simultaneous Nadir Overpasses (SNOs) Prediction Service
